Wind_Speed
24 23 23 24 25 25 25 25 25 23 22 20 20 19 19 19 19 18 17 18 19 19 20 19 19 19 19 19 19 19 20 20 21 21 23 24 24 24 24 24 24 24 24 25
25 25 25 25 25 26 26 26 25 24 22 21 20 19 19 19 19 19 19 20 20 20 20 20 20 20 20 20 20 20 21 22 22 23 24 25 25 25 25 25 26 26 26 26
26 26 26 26 25 26 26 25 26 25 23 23 23 21 21 20 20 20 21 21 21 22 22 22 21 21 21 21 21 22 22 23 24 24 24 26 26 26 26 26 27 27 27 26
27 27 28 26 26 26 26 26 26 26 24 24 24 23 22 22 22 22 22 23 23 23 24 24 23 23 23 23 24 24 24 25 25 26 26 26 26 27 27 28 28 27 26 26
29 29 30 28 28 28 28 28 28 27 25 25 24 24 24 24 25 25 25 25 25 24 24 24 24 25 24 24 25 25 26 26 26 26 27 28 28 27 27 28 28 27 27 26
30 30 30 29 29 30 30 30 29 28 27 26 25 25 25 26 26 27 26 24 24 24 24 25 26 26 25 26 26 27 28 27 27 28 28 28 28 28 28 28 28 27 27 26
30 30 30 30 29 29 30 30 29 29 28 28 27 28 28 27 27 27 26 26 27 26 26 27 27 27 27 27 28 29 29 29 29 28 28 29 29 28 28 29 29 28 28 28
30 29 27 27 28 28 29 29 29 29 29 29 29 29 29 29 29 29 28 28 28 28 28 29 29 29 29 29 29 30 30 30 30 30 30 30 30 29 29 29 29 29 29 30
30 29 28 27 28 28 29 29 29 29 28 29 29 30 30 30 30 30 30 30 30 29 30 30 31 31 31 31 31 31 32 32 33 32 31 31 30 30 30 30 30 30 30 30
29 29 29 29 29 29 29 29 29 29 29 29 29 28 29 29 30 30 30 31 32 32 32 32 32 33 33 33 33 33 33 32 32 32 32 31 31 31 31 31 31 30 30 30
29 29 29 30 30 30 30 31 31 30 30 31 31 31 31 30 29 29 30 31 32 32 33 33 33 32 33 34 34 34 33 33 33 33 33 32 31 31 31 31 31 31 31 30
28 28 29 29 30 30 31 31 31 30 30 31 31 31 31 31 31 32 32 33 33 34 34 33 33 33 34 34 35 35 34 34 34 34 33 32 32 31 31 32 32 31 30 30
28 29 29 30 29 30 31 31 31 32 32 32 32 32 32 32 32 32 32 32 33 34 35 34 34 34 34 35 35 35 36 36 36 36 36 34 33 32 32 32 32 31 30 31
30 29 29 30 30 30 31 32 32 33 34 35 34 33 33 33 33 34 33 33 34 33 34 35 35 35 35 35 35 36 36 36 37 36 35 34 33 33 33 32 32 32 32 31
30 30 31 31 31 31 32 32 32 32 33 34 35 34 34 33 34 35 35 36 35 35 35 36 36 36 36 36 37 37 37 36 36 35 35 34 34 33 33 33 33 33 32 32
31 31 31 31 32 32 32 33 33 33 33 33 33 34 33 33 34 35 36 36 36 35 35 36 35 35 36 36 37 37 37 36 36 35 35 35 34 34 33 33 33 32 32 31
31 31 31 32 32 33 33 33 33 33 34 34 34 34 34 34 35 35 36 36 36 36 36 36 35 35 35 36 36 36 36 35 34 33 33 33 32 32 32 32 32 31 31 31
29 30 30 31 31 32 33 32 32 33 34 34 33 33 34 34 34 35 35 35 36 35 35 35 34 35 35 34 34 34 33 33 32 32 32 32 32 31 31 31 31 30 29 30
28 28 29 29 29 30 31 31 31 31 31 31 31 32 32 32 33 33 34 34 34 34 35 35 35 34 33 32 32 32 32 32 32 32 32 31 31 31 31 31 30 29 29 29
26 27 27 28 28 27 27 28 28 29 30 31 31 31 32 32 32 32 32 33 33 34 34 34 34 33 33 32 32 31 31 31 31 31 31 31 30 29 29 29 28 28 29 29
25 26 27 27 27 27 27 26 27 28 29 29 30 30 30 31 32 32 32 32 32 32 33 32 32 32 32 32 31 30 30 29 30 30 29 28 28 27 27 27 27 28 28 28
25 25 25 26 26 26 26 27 27 27 28 28 28 28 28 29 29 29 30 30 30 31 31 30 30 31 31 31 30 29 29 29 29 28 27 27 27 27 27 26 26 27 27 27
23 23 23 24 24 25 25 25 25 26 26 26 26 27 28 29 28 28 29 29 30 30 30 30 30 30 30 30 30 30 30 30 29 29 28 27 26 26 26 25 25 25 26 26
22 22 22 23 23 24 25 25 25 25 25 25 25 26 26 27 27 27 28 28 28 28 29 29 29 30 30 30 30 30 30 29 29 28 28 27 26 25 25 25 25 25 24 25
22 21 22 22 23 24 24 24 24 24 24 25 25 25 26 26 26 26 27 27 27 27 27 28 28 29 29 30 29 29 28 28 28 28 27 28 28 27 26 25 25 25 25 25
20 20 21 22 23 24 23 23 23 24 25 24 25 25 25 25 26 26 26 26 27 27 27 27 27 27 28 28 28 27 27 27 27 28 28 28 28 28 27 26 26 26 26 26
18 19 20 21 22 22 23 23 23 24 24 24 24 24 25 25 25 25 25 26 27 27 26 26 26 26 27 27 26 26 26 26 26 27 27 26 27 27 27 27 27 27 27 26
Wind_Direction
248 248 249 251 252 255 260 264 268 272 273 272 273 274 277 279 279 279 279 282 284 287 290 289 288 289 290 291 291 288 287 290 293 295 295 297 297 299 299 299 299 299 300 300
251 250 252 254 256 258 261 264 267 269 269 268 270 273 274 279 279 279 280 282 286 287 288 289 290 289 288 290 290 289 289 291 293 296 296 297 298 297 297 298 297 296 296 295
252 253 256 258 259 260 261 262 265 266 266 265 268 269 272 275 277 279 280 282 285 285 286 286 288 290 288 290 290 289 290 292 296 298 298 296 295 295 296 295 295 293 293 294
255 255 256 260 261 262 263 262 262 264 265 267 269 268 270 273 275 277 277 279 282 283 283 285 285 287 290 291 290 290 291 294 296 296 296 297 297 297 295 295 295 295 295 295
254 256 257 258 260 262 264 263 263 263 265 268 270 269 268 270 272 274 276 278 281 282 283 283 284 288 291 292 292 292 293 294 295 296 297 297 298 297 296 295 295 295 295 295
254 256 258 259 260 261 262 263 263 263 265 267 268 270 272 272 272 275 276 276 278 280 283 284 286 288 290 292 292 292 293 293 294 295 295 295 295 295 294 293 293 293 293 293
253 256 259 259 260 260 260 263 264 265 266 268 268 270 271 272 272 273 274 275 277 277 280 282 284 286 288 289 290 291 291 290 291 292 292 293 292 292 292 292 292 292 292 293
252 255 258 259 260 258 259 262 265 266 268 268 269 269 270 271 273 273 273 274 274 276 280 281 283 283 286 288 290 290 290 290 288 289 289 290 290 290 290 289 290 291 291 292
252 254 257 257 258 259 260 262 264 266 267 268 268 269 270 272 273 272 273 275 276 277 279 281 282 283 285 286 288 289 289 289 289 288 289 290 289 288 290 290 289 291 290 290
251 253 255 256 259 261 261 261 263 265 268 268 269 270 270 272 273 272 273 274 277 279 279 281 282 283 285 287 288 288 288 288 288 289 290 289 288 288 289 290 291 292 290 289
253 255 256 257 259 260 261 262 263 264 267 270 270 271 271 272 274 275 274 275 277 278 279 279 280 282 285 286 287 287 286 287 287 287 288 287 287 286 287 289 290 290 290 290
256 257 258 258 259 260 263 263 263 265 267 269 269 269 272 273 273 274 274 275 276 277 278 278 279 281 283 285 285 286 286 288 289 286 287 285 284 284 285 287 288 289 289 289
258 259 260 261 261 261 264 264 264 266 267 268 269 269 271 272 272 273 274 275 276 277 278 278 279 281 282 283 284 284 286 288 290 289 288 285 284 285 285 285 286 286 287 289
259 260 261 262 264 264 264 265 265 266 268 269 270 270 272 273 274 274 275 276 276 277 279 280 281 282 282 283 284 285 286 287 288 288 288 286 286 286 286 285 285 285 286 287
258 260 262 263 265 267 268 268 269 270 270 270 270 271 272 273 274 275 276 277 277 279 280 281 282 283 283 284 284 285 286 286 287 287 287 287 285 285 285 285 285 286 287 286
258 259 261 264 265 266 267 269 270 271 272 273 272 271 272 272 273 275 276 277 278 280 282 282 283 284 284 285 286 286 286 286 287 287 287 286 285 284 284 284 284 284 285 284
259 260 262 264 266 267 269 270 271 272 273 273 274 273 273 272 273 274 276 277 278 280 282 284 284 284 285 286 286 287 287 287 287 287 287 286 286 284 284 285 284 283 284 284
262 262 263 265 267 269 270 273 274 275 275 275 275 275 275 275 274 275 276 277 278 279 280 282 284 286 286 285 286 286 287 288 287 287 287 287 288 287 286 286 284 283 283 284
263 263 264 266 269 270 272 274 275 276 276 276 276 277 277 278 277 277 278 278 279 280 281 282 285 286 287 287 286 285 287 288 287 287 286 287 287 286 284 284 283 282 282 282
265 265 265 267 269 271 273 275 275 276 277 277 277 278 279 280 282 279 279 279 279 280 281 283 284 285 286 287 286 285 286 287 286 286 286 286 286 285 283 282 282 282 281 280
268 267 266 268 269 271 273 274 275 277 278 278 279 281 282 282 282 281 281 281 281 281 282 282 283 284 285 285 285 285 286 286 286 286 285 285 285 284 283 282 282 283 281 279
271 271 269 268 270 271 273 274 275 278 279 281 282 283 283 284 283 283 283 283 282 282 281 282 283 284 284 283 283 284 284 284 283 283 282 284 284 284 282 281 282 282 282 281
275 273 270 270 271 272 275 276 277 279 281 281 281 283 284 283 283 283 283 283 283 283 284 285 286 285 284 283 282 282 283 282 281 281 282 284 284 283 282 281 282 282 282 281
276 273 271 271 272 273 275 276 278 280 281 282 283 286 287 286 285 285 285 284 284 284 285 285 285 285 285 284 283 283 282 282 282 282 283 283 283 283 282 282 283 282 282 281
275 273 274 274 273 274 276 277 279 281 283 285 287 289 290 289 288 288 287 286 285 286 286 287 287 286 284 283 283 282 281 281 281 281 280 280 281 282 282 282 283 284 284 283
276 276 276 275 275 276 278 280 282 284 286 287 289 290 290 289 289 290 290 289 288 288 288 287 287 287 286 285 284 283 282 282 282 282 281 279 279 279 280 280 281 284 283 282
279 278 279 279 279 279 280 281 284 285 287 288 290 291 291 291 291 291 292 292 291 291 290 288 286 285 286 286 285 284 284 283 283 284 283 282 281 281 281 280 281 281 280 280
Height
5850 5852 5854 5856 5857 5859 5860 5861 5862 5863 5864 5865 5865 5865 5866 5866 5866 5865 5865 5864 5863 5863 5862 5860 5859 5857 5855 5854 5852 5851 5849 5848 5846 5844 5843 5840 5838 5836 5835 5832 5830 5828 5826 5823
5844 5846 5848 5850 5852 5853 5854 5855 5856 5857 5859 5860 5860 5860 5861 5861 5861 5860 5860 5859 5858 5857 5856 5855 5854 5852 5850 5848 5846 5845 5844 5842 5840 5838 5836 5834 5832 5830 5828 5826 5823 5821 5819 5817
5839 5840 5842 5844 5846 5847 5849 5849 5851 5851 5854 5854 5854 5855 5856 5856 5856 5855 5854 5854 5853 5852 5850 5849 5847 5846 5844 5843 5841 5840 5838 5836 5834 5832 5830 5828 5826 5823 5821 5819 5817 5814 5812 5810
5832 5835 5836 5840 5839 5841 5842 5843 5844 5845 5846 5847 5848 5849 5849 5849 5849 5849 5848 5847 5846 5845 5843 5842 5840 5839 5838 5836 5835 5834 5832 5829 5827 5825 5823 5821 5818 5816 5814 5812 5809 5807 5804 5802
5826 5827 5829 5831 5832 5833 5834 5835 5837 5838 5839 5840 5841 5842 5843 5843 5842 5842 5841 5840 5839 5838 5836 5835 5834 5833 5831 5830 5829 5827 5825 5823 5820 5818 5815 5813 5811 5808 5806 5804 5802 5799 5797 5795
5819 5820 5822 5825 5825 5825 5827 5828 5829 5830 5831 5833 5834 5835 5836 5836 5835 5834 5833 5832 5832 5831 5829 5828 5827 5826 5824 5823 5821 5819 5817 5815 5813 5810 5808 5806 5803 5801 5798 5796 5794 5792 5789 5787
5811 5813 5814 5816 5817 5818 5820 5822 5822 5823 5824 5825 5825 5827 5827 5827 5827 5826 5826 5825 5824 5823 5822 5821 5820 5818 5817 5815 5813 5811 5809 5807 5805 5803 5800 5798 5795 5793 5790 5788 5786 5783 5781 5779
5804 5805 5809 5808 5809 5811 5812 5813 5814 5815 5816 5817 5817 5818 5818 5819 5819 5818 5818 5817 5816 5815 5814 5813 5812 5810 5809 5807 5805 5803 5801 5798 5796 5794 5791 5789 5787 5784 5782 5779 5777 5775 5773 5771
5797 5800 5800 5801 5802 5803 5804 5806 5807 5807 5808 5808 5809 5809 5810 5810 5810 5809 5809 5809 5808 5807 5806 5805 5803 5801 5800 5798 5796 5794 5791 5789 5787 5785 5782 5780 5778 5775 5773 5771 5769 5767 5765 5763
5789 5791 5792 5793 5794 5795 5796 5797 5798 5799 5800 5800 5801 5801 5801 5801 5800 5800 5800 5800 5799 5798 5797 5795 5794 5792 5790 5788 5786 5784 5782 5780 5778 5776 5773 5771 5769 5767 5765 5763 5760 5758 5756 5754
5781 5783 5784 5786 5787 5788 5788 5789 5790 5791 5791 5792 5792 5793 5792 5792 5792 5791 5791 5790 5790 5789 5788 5786 5784 5782 5781 5779 5777 5774 5772 5770 5768 5766 5764 5762 5760 5758 5756 5754 5752 5750 5748 5745
5773 5775 5776 5777 5778 5779 5780 5780 5781 5782 5782 5783 5783 5783 5783 5782 5782 5782 5781 5781 5780 5778 5777 5776 5774 5773 5771 5769 5767 5765 5763 5761 5758 5756 5753 5752 5750 5748 5746 5745 5743 5741 5739 5737
5765 5766 5767 5768 5769 5770 5771 5771 5771 5772 5773 5773 5773 5774 5773 5773 5772 5772 5771 5770 5769 5768 5767 5766 5764 5763 5761 5759 5757 5755 5753 5751 5749 5746 5744 5742 5740 5739 5737 5735 5733 5731 5730 5728
5756 5758 5759 5760 5760 5761 5761 5762 5762 5763 5763 5763 5764 5764 5763 5763 5762 5762 5761 5760 5759 5758 5757 5755 5754 5753 5751 5749 5747 5746 5744 5741 5739 5736 5734 5732 5730 5729 5727 5725 5724 5722 5721 5719
5748 5749 5750 5751 5751 5751 5752 5753 5753 5753 5753 5753 5753 5753 5753 5752 5752 5751 5750 5749 5748 5747 5746 5745 5743 5742 5740 5738 5737 5735 5733 5731 5728 5726 5724 5722 5720 5719 5717 5716 5714 5713 5711 5710
5740 5740 5741 5742 5743 5743 5743 5743 5744 5744 5744 5743 5743 5743 5742 5742 5741 5741 5739 5738 5737 5736 5735 5733 5732 5731 5729 5728 5726 5724 5722 5720 5718 5716 5714 5712 5710 5708 5707 5705 5704 5703 5701 5700
5731 5732 5733 5733 5734 5734 5734 5734 5733 5734 5734 5733 5733 5733 5732 5732 5731 5730 5729 5728 5727 5726 5724 5723 5722 5720 5719 5717 5715 5713 5711 5709 5707 5705 5703 5702 5700 5698 5697 5695 5694 5692 5691 5690
5721 5723 5723 5724 5724 5724 5724 5724 5724 5723 5723 5723 5723 5722 5722 5721 5720 5719 5718 5717 5716 5715 5714 5712 5711 5710 5708 5706 5704 5703 5701 5699 5697 5695 5694 5692 5690 5689 5687 5685 5684 5683 5681 5680
5713 5714 5714 5715 5715 5715 5715 5715 5714 5714 5713 5712 5712 5712 5711 5711 5710 5709 5708 5707 5706 5705 5704 5702 5701 5699 5698 5696 5694 5692 5690 5689 5687 5685 5684 5682 5680 5678 5677 5675 5674 5673 5672 5670
5705 5705 5706 5706 5706 5706 5706 5706 5705 5705 5704 5703 5703 5702 5702 5701 5700 5699 5698 5697 5696 5694 5693 5692 5690 5689 5688 5686 5684 5682 5680 5679 5677 5676 5674 5672 5670 5668 5667 5665 5664 5663 5662 5661
5697 5697 5698 5698 5698 5698 5698 5698 5697 5696 5696 5695 5694 5693 5692 5691 5690 5689 5688 5687 5686 5684 5683 5681 5680 5679 5677 5676 5674 5672 5671 5669 5668 5666 5664 5662 5660 5659 5658 5656 5655 5654 5653 5652
5689 5689 5689 5690 5690 5690 5690 5690 5689 5688 5687 5687 5686 5685 5683 5682 5681 5679 5678 5677 5675 5674 5672 5671 5670 5669 5667 5665 5664 5662 5661 5660 5658 5657 5655 5653 5652 5650 5649 5648 5646 5645 5644 5643
5682 5681 5681 5682 5682 5682 5682 5682 5681 5680 5679 5679 5678 5676 5675 5674 5671 5670 5669 5668 5666 5664 5662 5661 5660 5659 5657 5655 5654 5652 5651 5650 5649 5647 5646 5644 5642 5641 5640 5639 5638 5637 5636 5635
5675 5674 5674 5674 5674 5674 5674 5674 5673 5672 5672 5671 5670 5668 5667 5665 5663 5661 5659 5658 5656 5654 5653 5651 5650 5648 5647 5645 5644 5643 5641 5640 5639 5637 5636 5635 5634 5633 5632 5631 5630 5628 5627 5626
5668 5667 5667 5667 5667 5667 5666 5666 5665 5665 5664 5663 5661 5659 5658 5656 5654 5652 5650 5649 5647 5645 5644 5642 5640 5639 5637 5635 5634 5633 5632 5630 5629 5628 5627 5626 5625 5624 5623 5622 5621 5620 5619 5617
5661 5661 5660 5660 5660 5659 5659 5659 5658 5657 5656 5655 5653 5651 5650 5648 5646 5644 5642 5640 5638 5636 5634 5633 5631 5629 5628 5626 5625 5623 5622 5621 5619 5618 5617 5616 5616 5615 5614 5613 5612 5611 5610 5609
5655 5654 5654 5653 5652 5652 5652 5651 5651 5650 5649 5647 5646 5644 5642 5640 5638 5636 5634 5632 5629 5627 5625 5624 5622 5620 5619 5617 5615 5614 5612 5611 5610 5609 5608 5607 5606 5605 5604 5603 5603 5602 5601 5599